Regional Weather Roundup
Issued by NWS State College, PA

Home | Current Version | Previous Version | Graphics & Text | Print | Product List | Glossary On
Versions: 1 2 3 4 5 6 7 8 9 10 11 12 13 14 15 16 17 18 19 20 21 22 23 24 25 26 27 28 29 30 31 32 33 34 35 36 37 38 39 40 41 42 43 44 45 46 47 48 49 50
000
ASUS41 KCTP 261710
RWRCTP

REGIONAL WEATHER ROUNDUP
NATIONAL WEATHER SERVICE STATE COLLEGE PA
1200 PM EST MON JAN 26 2015

Note: "fair" indicates few or no clouds below 12,000 feet with no
significant weather and/or obstructions to visibility.

* = STATION THAT DOES NOT REPORT PRECIPITATION /E.G. RAIN...SNOW...ETC/
    THUNDER OR FOG.

PAZ002>004-007>009-013>016-020>023-029>032-261800-
WESTERN PENNSYLVANIA

CITY           SKY/WX    TMP DP  RH WIND       PRES   REMARKS
ERIE           LGT SNOW  20  15  81 NE13      29.84F WCI   7
MEADVILLE      LGT SNOW  20  15  81 NE8       29.76F VSB 3/4 WCI  10
FRANKLIN*      CLOUDY    19  14  79 NE8       29.75F WCI   9
NEW CASTLE     LGT SNOW  22  19  88 N8        29.77F FOG     WCI  13
BEAVER COUNTY  LGT SNOW  25  21  86 N8        29.73S
BUTLER*        CLOUDY    25  19  80 NE8       29.73F VSB 1/2
PITTSBURGH INT SNOW      26  23  88 N10       29.71S VSB 1/2
PITTSBURGH     SNOW      28  25  88 N6        29.68F VSB 1/2
INDIANA*       FOG       25  23  93 E8        29.75F VSB 1/2
LATROBE        LGT SNOW  30  28  93 E6        29.71F VSB 1
WASHINGTON CO* CLOUDY    28  25  86 CALM      29.71S
$$

PAZ004>006-010>012-017>019-024>028-033>037-041-042-045-046-049>053-261800-
CENTRAL PENNSYLVANIA

CITY           SKY/WX    TMP DP  RH WIND       PRES   REMARKS
BRADFORD       SNOW      17  11  77 E7        29.72F VSB 1/2 WCI   8
DUBOIS         SNOW      20  16  84 E10       29.71F VSB 1/2 WCI   9
CLEARFIELD     SNOW      19  15  84 NE8       29.76F VSB 1/4 WCI   9
JOHNSTOWN      LGT SNOW  23  19  85 SE6       29.66F FOG
ALTOONA        CLOUDY    21  18  88 N7        29.75F WCI  12
STATE COLLEGE  LGT SNOW  18  14  86 NE8       29.80F FOG     WCI   7
WILLIAMSPORT   LGT SNOW  22  16  78 E8        29.87F WCI  12
SELINSGROVE    CLOUDY    25  19  78 N5        29.86F
FT INDIANTOWN  LGT SNOW  22  16  79 E8        29.85F WCI  12
CAPITAL CITY   CLOUDY    24  18  77 E9        29.85F WCI  14
HARRISBURG     CLOUDY    24  18  77 NE9       29.84F WCI  14
YORK           LGT SNOW  25  22  88 E7        29.81F FOG
$$

PAZ038>040-043-044-047-048-054-055-060>062-067>071-261800-
EASTERN PENNSYLVANIA

CITY           SKY/WX    TMP DP  RH WIND       PRES   REMARKS
SCRANTON       CLOUDY    22  12  65 NE8       29.85F WCI  12
MOUNT POCONO   LGT SNOW  15  10  80 E15G22    29.79F WCI   0
ALLENTOWN      LGT SNOW  19  12  73 NE18      29.88F VSB 3/4 WCI   4
QUAKERTOWN*    NOT AVBL
READING        LGT SNOW  21  16  81 N14       29.85F WCI   8
LANCASTER      LGT SNOW  24  18  77 E14       29.83F WCI  12
COATESVILLE    FLURRIES  25  23  93 NE9       29.80F
POTTSTOWN      LGT SNOW  23  18  81 NE12      29.86F WCI  12
BLUE BELL      PTSUNNY   30  23  74 NE9G20    29.84F
DOYLESTOWN     FLURRIES  22  19  89 NE10G20   29.85F WCI  11
WILLOW GROVE   NOT AVBL
NORTH PHILA    LGT SNOW  30  22  72 NE18G24   29.86F
PHILADELPHIA   LGT SNOW  30  25  81 NE16G25   29.83F
$$



USA.gov is the U.S. government's official web portal to all federal, state and local government web resources and services.